Starlink 31404

operational
NORAD ID: 59521 Int'l Des: 2024-073 Owner: SPXS Country: US Constellation: starlink
LEOCIRCULAR

About Starlink 31404

Description loading...

Live Position

Loading 3D Globe...

Upcoming Passes

Altitude History

Altitude vs Time

uPlot chart will show altitude changes over time

Two-Line Element Set

1 59521U 24073L 25348.63433785 -.00001857 00000-0 -58019-4 0 9999
2 59521 43.0044 78.7010 0001228 274.3885 85.6827 15.27554336 93168
Epoch: Dec 14, 2025 • Age: 30 hours

Current Status

Altitude 487.4 km
Velocity 7.62 km/s
Sub-Earth Point -21.33°S, 8.83°E
Launch Date Apr 17, 2024
Age 1.6 years
Type internet

Technical Details

Classification Payload
Mass 730.00 kg
Dry Mass 700.00 kg
Total Mass 730.00 kg
Length 0.30 m
Diameter 4.10 m
Span 29.00 m
Shape Box + pan
Manufacturer SPXS
Bus Type Starlink V2M
Phase Status In Orbit
Owner/State SPXS/US

Large Constellations

Loading constellations...